Location: Unspecified
(42.5696°N, 0.0000°E)
Time: 14:09:32
(UTC+00:00)

Transit 2A - Visible Passes

Search period start: 04 April 2026 00:00
Search period end: 14 April 2026 00:00
Orbit: 591 x 953 km, 66.7° (Epoch: 29 March)

Date Brightness Start Highest point End Pass type
(mag) Time Alt. Az. Time Alt. Az. Time Alt. Az.
4 Apr 7.7 01:30:35 36° NE 01:30:35 36° NE 01:34:10 10° NE visible
4 Apr 7.6 03:10:54 27° NW 03:11:36 28° NW 03:16:46 10° NNE visible
5 Apr 8.2 00:55:04 24° NE 00:55:04 24° NE 00:57:35 10° NE visible
5 Apr 7.3 02:35:23 36° NW 02:35:23 36° NW 02:40:35 10° NNE visible
5 Apr 8.6 04:18:41 10° NW 04:19:49 10° NNW 04:20:56 10° NNW visible
6 Apr 8.7 00:19:31 16° ENE 00:19:31 16° ENE 00:20:51 10° NE visible
6 Apr 7.3 01:59:49 42° NNW 01:59:49 42° NNW 02:04:20 10° NNE visible
6 Apr 8.5 03:40:08 10° WNW 03:42:52 13° NNW 03:45:46 10° N visible
7 Apr 7.5 01:24:14 39° NNE 01:24:14 39° NNE 01:28:01 10° NNE visible
7 Apr 8.2 03:04:33 16° NW 03:06:00 17° NW 03:09:57 10° N visible
8 Apr 7.9 00:48:36 31° NNE 00:48:36 31° NNE 00:51:37 10° NNE visible
8 Apr 8.0 02:28:54 23° NW 02:29:13 23° NW 02:33:56 10° N visible
9 Apr 8.3 00:12:56 23° NE 00:12:56 23° NE 00:15:07 10° NE visible
9 Apr 7.8 01:53:14 29° NW 01:53:14 29° NW 01:57:49 10° NNE visible
9 Apr 8.6 23:37:13 16° NE 23:37:13 16° NE 23:38:29 10° NE visible
10 Apr 7.7 01:17:31 34° NNW 01:17:31 34° NNW 01:21:37 10° NNE visible
10 Apr 8.7 02:58:49 10° NW 03:00:37 11° NNW 03:02:24 10° NNW visible
10 Apr 8.8 23:01:28 11° NE 23:01:28 11° NE 23:01:40 10° NE visible
11 Apr 7.7 00:41:46 35° N 00:41:46 35° N 00:45:20 10° NNE visible
11 Apr 8.5 02:22:04 13° NW 02:23:42 15° NW 02:26:55 10° N visible
12 Apr 7.9 00:05:59 31° NNE 00:05:59 31° NNE 00:09:00 10° NNE visible
12 Apr 8.3 01:46:16 19° NW 01:46:51 19° NW 01:51:02 10° N visible
12 Apr 8.1 23:30:07 26° NE 23:30:07 26° NE 23:32:33 10° NE visible
13 Apr 8.1 01:10:25 25° NW 01:10:25 25° NW 01:14:59 10° N visible
13 Apr 8.3 22:54:12 20° NE 22:54:12 20° NE 22:56:01 10° NE visible
